User: anonymous
Location: Unspecified
(42.1900°N, 71.3291°W)
Time: 07:40:27
(UTC-04:00)
Language:

Resurs 1-4 Rocket - Orbit

View from above orbital plane
View from above orbital plane
View from above satellite
View from above satellite

Ground track
Ground track

The orbit data is extracted from the following two-line orbital elements,

1 25400U 98043G   14260.03265737  .00000048  00000-0  38040-4 0  7495
2 25400 098.3447 232.4936 0009667 005.8362 354.2929 14.25257033842021
Epoch (UTC): 17 September 2014 00:47:01
Eccentricity: 0.0009667
inclination: 98.3447°
perigee height: 800 km
apogee height: 814 km
right ascension of ascending node: 232.4936°
argument of perigee: 5.8362°
revolutions per day: 14.25257033
mean anomaly at epoch: 354.2929°
orbit number at epoch: 84202

The dashed part of the orbit path shows where the satellite is in the earth's shadow,  

DLR